CW6726 Weather Reports


time (UTC)temp
C
wind
direction
speed
KPH
gust
KPH
rain 1hr
cm
rain 24hr
cm
rain mn
cm
humidity
%
barometer
mb
20260510162605 13 26 8.0 27.4 0.00 0.00 0.00 63 1011.2
20260510161105 13 35 14.5 27.4 0.00 0.00 0.00 63 1011.3
20260510160605 13 35 12.9 27.4 0.00 0.00 0.00 63 1011.2
20260510155605 14 36 19.3 32.2 0.00 0.00 0.00 62 1011.5
20260510154605 14 35 19.3 33.8 0.00 0.00 0.00 63 1011.5
20260510153605 13 19 14.5 27.4 0.00 0.00 0.00 64 1011.5
20260510152105 13 41 9.7 27.4 0.00 0.00 0.00 65 1011.7
20260510151105 13 27 19.3 25.7 0.00 0.00 0.00 65 1011.9
20260510150605 13 28 14.5 29.0 0.00 0.00 0.00 66 1011.9
20260510145605 13 26 19.3 38.6 0.00 0.00 0.00 66 1012.0
20260510145104 13 16 16.1 35.4 0.00 0.00 0.00 66 1012.1
20260510144605 13 30 12.9 20.9 0.00 0.00 0.00 67 1012.1
20260510144105 13 32 14.5 27.4 0.00 0.00 0.00 67 1012.2
20260510143605 13 14 12.9 22.5 0.00 0.00 0.00 67 1012.2
20260510143104 13 8 12.9 25.7 0.00 0.00 0.00 67 1012.4
20260510142105 13 24 12.9 22.5 0.00 0.00 0.00 67 1012.5
20260510141105 13 21 14.5 24.1 0.00 0.00 0.00 67 1012.5
20260510140605 13 25 14.5 25.7 0.00 0.00 0.00 67 1012.6
20260510135605 13 18 14.5 24.1 0.00 0.00 0.00 67 1012.7
20260510134605 14 32 12.9 24.1 0.00 0.00 0.00 66 1012.6
20260510132105 14 39 11.3 20.9 0.00 0.00 0.00 66 1012.8
20260510131604 14 19 17.7 32.2 0.00 0.00 0.00 66 1012.7
20260510130605 14 28 11.3 29.0 0.00 0.00 0.00 66 1012.8
20260510130105 14 32 17.7 32.2 0.00 0.00 0.00 66 1012.8
20260510123604 14 24 14.5 24.1 0.00 0.00 0.00 65 1012.8
20260510123104 14 28 11.3 22.5 0.00 0.00 0.00 64 1012.8
20260510121605 14 23 12.9 24.1 0.00 0.00 0.00 64 1013.0
20260510120605 14 25 9.7 19.3 0.00 0.00 0.00 64 1013.0
20260510120105 14 42 9.7 22.5 0.00 0.00 0.00 64 1013.0
20260510115606 14 15 8.0 20.9 0.00 0.00 0.00 65 1013.1
20260510115104 14 33 12.9 27.4 0.00 0.00 0.00 65 1013.1
20260510113605 15 37 14.5 25.7 0.00 0.00 0.00 63 1013.1
20260510113105 15 41 8.0 22.5 0.00 0.00 0.00 63 1013.2
20260510112104 15 6 11.3 22.5 0.00 0.00 0.00 62 1013.3
20260510111104 15 42 9.7 19.3 0.00 0.00 0.00 62 1013.4
20260510110605 15 42 11.3 32.2 0.00 0.00 0.00 62 1013.5
20260510105605 14 19 14.5 27.4 0.00 0.00 0.00 62 1013.5
20260510102105 13 33 12.9 24.1 0.00 0.00 0.00 66 1013.8
20260510101604 13 35 14.5 27.4 0.00 0.00 0.00 66 1013.8
20260510100105 13 18 14.5 24.1 0.00 0.00 0.00 67 1013.7
20260510095605 13 41 14.5 32.2 0.00 0.00 0.00 67 1013.7
20260510095105 13 24 14.5 27.4 0.00 0.00 0.00 68 1013.7
20260510094105 13 30 11.3 25.7 0.00 0.00 0.00 68 1013.7
20260510093604 13 30 16.1 29.0 0.00 0.00 0.00 67 1013.7
20260510093105 13 28 12.9 22.5 0.00 0.00 0.00 69 1013.7
20260510092605 12 21 17.7 37.0 0.00 0.00 0.00 70 1013.8
20260510091604 12 41 16.1 32.2 0.00 0.00 0.00 71 1013.8
20260510091105 12 41 14.5 32.2 0.00 0.00 0.00 71 1013.9
20260510090605 12 29 16.1 29.0 0.00 0.00 0.00 71 1013.9
20260510084605 11 24 12.9 29.0 0.00 0.00 0.00 74 1013.9
20260510082605 11 28 11.3 20.9 0.00 0.00 0.00 76 1014.1
20260510082104 11 28 14.5 29.0 0.00 0.00 0.00 76 1014.1
20260510081605 11 21 12.9 33.8 0.00 0.00 0.00 77 1014.1
20260510080605 11 22 12.9 22.5 0.00 0.00 0.00 78 1014.2
20260510080105 11 15 9.7 22.5 0.00 0.00 0.00 78 1014.2
20260510075105 10 38 11.3 29.0 0.00 0.00 0.00 79 1014.2
20260510074605 10 21 16.1 29.0 0.00 0.00 0.00 79 1014.2
20260510074104 10 23 9.7 24.1 0.00 0.00 0.00 79 1014.2
20260510073105 10 27 11.3 22.5 0.00 0.00 0.00 80 1014.2
20260510072605 10 24 11.3 25.7 0.00 0.00 0.00 80 1014.2
20260510071105 10 31 9.7 20.9 0.00 0.00 0.00 80 1014.2
20260510070605 10 25 12.9 22.5 0.00 0.00 0.00 80 1014.2
20260510065605 10 29 12.9 22.5 0.00 0.00 0.00 80 1014.2
20260510064605 10 41 9.7 20.9 0.00 0.00 0.00 81 1014.2
20260510063605 10 22 8.0 22.5 0.00 0.00 0.00 81 1014.1
20260510063105 10 34 12.9 25.7 0.00 0.00 0.00 81 1014.1
20260510062605 10 37 8.0 25.7 0.00 0.00 0.00 81 1014.1
20260510061605 10 29 9.7 24.1 0.00 0.00 0.00 82 1014.1
20260510061105 10 48 8.0 16.1 0.00 0.00 0.00 82 1014.1
20260510060605 10 25 11.3 19.3 0.00 0.00 0.00 82 1014.1
20260510055104 10 27 8.0 19.3 0.00 0.00 0.00 82 1014.1
20260510053605 9 28 9.7 16.1 0.00 0.00 0.00 82 1014.0
20260510053104 9 20 8.0 16.1 0.00 0.00 0.00 82 1014.0
20260510052104 9 30 8.0 14.5 0.00 0.00 0.00 82 1014.1
20260510051105 9 26 8.0 16.1 0.00 0.00 0.00 82 1014.1
20260510050606 9 30 8.0 19.3 0.00 0.00 0.00 82 1014.1
20260510050105 9 31 8.0 14.5 0.00 0.00 0.00 82 1014.1
20260510045604 9 23 8.0 16.1 0.00 0.00 0.00 81 1014.1
20260510044105 9 37 8.0 19.3 0.00 0.00 0.00 81 1014.1
20260510043604 10 24 11.3 19.3 0.00 0.00 0.00 81 1014.0
20260510042105 10 34 9.7 19.3 0.00 0.00 0.00 80 1014.1
20260510041605 10 47 9.7 16.1 0.00 0.00 0.00 80 1014.1
20260510041105 10 18 8.0 19.3 0.00 0.00 0.00 80 1014.1
20260510035605 10 15 11.3 19.3 0.00 0.00 0.00 80 1014.1
20260510035105 10 24 9.7 19.3 0.00 0.00 0.00 80 1014.1
20260510033106 10 42 8.0 14.5 0.00 0.00 0.00 80 1014.2
20260510032605 10 13 4.8 12.9 0.00 0.00 0.00 80 1014.2
20260510032105 10 42 11.3 20.9 0.00 0.00 0.00 80 1014.4
20260510031105 10 29 11.3 22.5 0.00 0.00 0.00 79 1014.4
20260510030105 10 14 9.7 19.3 0.00 0.00 0.00 79 1014.4
20260510025105 10 10 8.0 16.1 0.00 0.00 0.00 78 1014.3
20260510024105 11 19 4.8 16.1 0.00 0.00 0.00 77 1014.3
20260510023605 11 22 8.0 14.5 0.00 0.00 0.00 77 1014.4
20260510022105 11 24 11.3 20.9 0.00 0.00 0.00 76 1014.3
20260510021605 11 12 11.3 19.3 0.00 0.00 0.00 76 1014.3
20260510020604 11 31 9.7 24.1 0.00 0.00 0.00 75 1014.2
20260510015606 11 22 8.0 19.3 0.00 0.00 0.00 73 1014.1
20260510015104 11 31 11.3 20.9 0.00 0.00 0.00 71 1014.1
20260510014605 11 41 11.3 20.9 0.00 0.00 0.00 70 1014.1
20260510013105 11 32 11.3 22.5 0.00 0.00 0.00 67 1014.1
20260510012605 11 24 8.0 22.5 0.00 0.00 0.00 66 1014.1
20260510012105 11 30 11.3 20.9 0.00 0.00 0.00 66 1014.1
20260510010605 12 24 11.3 22.5 0.00 0.00 0.00 65 1014.1
20260510004605 12 24 9.7 19.3 0.00 0.00 0.00 65 1014.1
20260510004104 12 19 9.7 19.3 0.00 0.00 0.00 64 1014.1
20260510002604 12 31 6.4 11.3 0.00 0.00 0.00 63 1014.1
20260510002105 12 32 8.0 12.9 0.00 0.00 0.00 62 1014.2
20260510001605 12 38 6.4 14.5 0.00 0.00 0.00 62 1014.1
20260510000605 12 19 9.7 14.5 0.00 0.00 0.00 61 1014.1
20260510000105 12 30 4.8 9.7 0.00 0.00 0.00 61 1014.1
20260509235105 12 30 4.8 11.3 0.00 0.00 0.00 60 1014.2
20260509234605 12 30 4.8 11.3 0.00 0.00 0.00 60 1014.2
20260509234105 12 31 6.4 12.9 0.00 0.00 0.00 59 1014.2
20260509233604 12 33 8.0 14.5 0.00 0.00 0.00 59 1014.2
20260509233105 12 23 8.0 16.1 0.00 0.00 0.00 58 1014.2
20260509232605 12 30 8.0 11.3 0.00 0.00 0.00 58 1014.2
20260509232105 13 30 6.4 11.3 0.00 0.00 0.00 57 1014.2
20260509225605 13 32 4.8 12.9 0.00 0.00 0.00 56 1014.1
20260509225104 13 30 4.8 14.5 0.00 0.00 0.00 55 1014.0
20260509224605 13 22 6.4 12.9 0.00 0.00 0.00 55 1014.1
20260509222105 13 27 4.8 12.9 0.00 0.00 0.00 54 1014.0
20260509221605 13 56 6.4 11.3 0.00 0.00 0.00 54 1014.0
20260509220605 13 72 3.2 8.0 0.00 0.00 0.00 54 1014.1
20260509220105 13 74 3.2 14.5 0.00 0.00 0.00 54 1014.1
20260509214605 13 41 0.0 4.8 0.00 0.00 0.00 60 1014.1
20260509212105 12 46 0.0 3.2 0.00 0.00 0.00 66 1014.1
20260509210605 13 46 0.0 3.2 0.00 0.00 0.00 64 1013.8
20260509204605 14 46 0.0 0.0 0.00 0.00 0.00 61 1013.6
20260509204105 15 46 0.0 1.6 0.00 0.00 0.00 60 1013.6
20260509203105 15 46 1.6 4.8 0.00 0.00 0.00 59 1013.4
20260509202105 16 47 1.6 4.8 0.00 0.00 0.00 58 1013.3
20260509201605 16 47 1.6 4.8 0.00 0.00 0.00 56 1013.2
20260509201105 16 47 1.6 4.8 0.00 0.00 0.00 55 1013.2
20260509200605 16 47 1.6 4.8 0.00 0.00 0.00 54 1013.1
20260509200105 16 47 0.0 8.0 0.00 0.00 0.00 54 1013.1
20260509195604 17 47 1.6 8.0 0.00 0.00 0.00 53 1013.1
20260509193104 17 60 1.6 9.7 0.00 0.00 0.00 52 1013.0
20260509192104 18 70 3.2 11.3 0.00 0.00 0.00 51 1012.8
20260509191104 18 31 0.0 4.8 0.00 0.00 0.00 51 1012.9
20260509190606 18 31 1.6 4.8 0.00 0.00 0.00 51 1012.8
20260509185604 18 31 4.8 9.7 0.00 0.00 0.00 49 1012.7
20260509184105 19 28 4.8 12.9 0.00 0.00 0.00 48 1012.6
20260509182605 19 30 8.0 14.5 0.00 0.00 0.00 47 1012.6
20260509182105 20 38 3.2 4.8 0.00 0.00 0.00 48 1012.5
20260509181105 20 40 3.2 11.3 0.00 0.00 0.00 47 1012.5
20260509180604 20 42 3.2 12.9 0.00 0.00 0.00 47 1012.5
20260509180106 20 40 3.2 4.8 0.00 0.00 0.00 47 1012.4
20260509175105 20 24 3.2 12.9 0.00 0.00 0.00 46 1012.4
20260509174605 20 26 4.8 12.9 0.00 0.00 0.00 46 1012.3
20260509174105 20 28 4.8 14.5 0.00 0.00 0.00 45 1012.3
20260509173605 20 26 1.6 8.0 0.00 0.00 0.00 45 1012.2
20260509173105 20 26 3.2 8.0 0.00 0.00 0.00 44 1012.2
20260509172604 20 25 1.6 12.9 0.00 0.00 0.00 45 1012.2
20260509171605 21 19 3.2 9.7 0.00 0.00 0.00 44 1012.2
20260509171107 21 18 4.8 12.9 0.00 0.00 0.00 43 1012.2
20260509165105 21 18 6.4 11.3 0.00 0.00 0.00 45 1012.4